Weather History for Miami, FL

Change the Weather History Date:

Monday, December 2, 2013

  Actual Average Record
Temperature  
Mean Temperature 70 °F 72 °F  
Max Temperature 77 °F 80 °F 86 °F (1981)
Min Temperature 63 °F 66 °F 41 °F (1910)
Degree Days  
Heating Degree Days 0 0  
Month to date heating degree days 0 0  
Since 1 July heating degree days 2 3  
Cooling Degree Days 5 8  
Month to date cooling degree days 12 16  
Year to date cooling degree days 4553 4388  
Growing Degree Days 22 (Base 50)    
Moisture  
Dew Point 63 °F    
Average Humidity 73    
Maximum Humidity 93    
Minimum Humidity 53    
Precipitation  
Precipitation T in 0.07 in 1.25 in (1994)
Month to date precipitation 0.21 0.15  
Year to date precipitation 65.96 60.01  
Snow  
Snow 0.00 in - - ()
Month to date snowfall 0.0  
Since 1 July snowfall 0.0  
Snow Depth 0.00 in    
Sea Level Pressure  
Sea Level Pressure 29.91 in    
Wind  
Wind Speed 5 mph (WNW)    
Max Wind Speed 13 mph    
Max Gust Speed 17 mph    
Visibility 8 miles    
Events Rain    
T = Trace of Precipitation, MM = Missing Value Source: NWS Daily Summary

Daily Weather History Graph

Daily Weather History Graph

Search for Another Location

Airport:

Trip Planner

Search our weather history database for the weather conditions in past years. The results will help you decide how hot, cold, wet, or windy it might be!

Date:

Astronomy

Dec. 02, 2013 Rise Set
Actual Time 6:51 AM EST 5:29 PM EST
Civil Twilight 6:26 AM EST 5:54 PM EST
Nautical Twilight 5:58 AM EST 6:23 PM EST
Astronomical Twilight 5:30 AM EST 6:51 PM EST
Moon 6:18 AM EST (12/2) 5:28 PM EST (12/2)
Length of Visible Light 11h 27m
Length of Day
10h 38m
Waning Crescent, 0% of the Moon is Illuminated
Dec 2
Waning Crescent
Dec 2
New
Dec 9
First Quarter
Dec 17
Full
Dec 25
Last Quarter

Hourly Weather History & Observations

Time (EST) Temp. Dew Point Humidity Pressure Visibility Wind Dir Wind Speed Gust Speed Precip Events Conditions
12:24 AM 69.8 °F 66.2 °F 88% 29.96 in 10.0 mi NW 3.5 mph - N/A   Mostly Cloudy
12:42 AM 69.8 °F 66.2 °F 88% 29.95 in 10.0 mi NW 4.6 mph - N/A   Mostly Cloudy
12:53 AM 69.1 °F 66.0 °F 90% 29.95 in 10.0 mi NW 4.6 mph - N/A   Mostly Cloudy
1:53 AM 68.0 °F 66.0 °F 93% 29.92 in 7.0 mi NNW 3.5 mph - N/A   Overcast
2:53 AM 68.0 °F 66.0 °F 93% 29.90 in 7.0 mi West 3.5 mph - N/A   Overcast
3:53 AM 66.9 °F 64.9 °F 93% 29.89 in 6.0 mi WNW 3.5 mph - N/A   Overcast
4:13 AM 66.2 °F 64.4 °F 94% 29.89 in 6.0 mi WNW 4.6 mph - N/A   Overcast
4:53 AM 66.9 °F 64.9 °F 93% 29.89 in 6.0 mi West 4.6 mph - N/A   Overcast
5:20 AM 66.2 °F 64.4 °F 94% 29.89 in 0.5 mi WNW 5.8 mph - N/A   Overcast
5:53 AM 66.0 °F 64.9 °F 96% 29.90 in 4.0 mi WNW 6.9 mph - N/A   Overcast
6:53 AM 66.0 °F 64.9 °F 96% 29.91 in 3.0 mi WNW 4.6 mph - 0.00 in Rain Light Rain
7:53 AM 66.0 °F 64.9 °F 96% 29.92 in 4.0 mi West 5.8 mph - 0.00 in   Overcast
7:56 AM 66.2 °F 64.4 °F 94% 29.92 in 5.0 mi WNW 5.8 mph - N/A   Overcast
8:23 AM 66.2 °F 64.4 °F 94% 29.92 in 5.0 mi West 6.9 mph - 0.00 in Rain Light Rain
8:53 AM 66.0 °F 64.9 °F 96% 29.94 in 6.0 mi West 9.2 mph - 0.00 in   Overcast
9:00 AM 66.2 °F 64.4 °F 94% 29.94 in 6.0 mi West 5.8 mph - 0.00 in   Overcast
9:04 AM 66.2 °F 64.4 °F 94% 29.94 in 5.0 mi West 10.4 mph - 0.00 in   Overcast
9:15 AM 66.2 °F 64.4 °F 94% 29.94 in 6.0 mi West 8.1 mph - 0.00 in   Overcast
9:35 AM 66.2 °F 64.4 °F 94% 29.94 in 6.0 mi West 5.8 mph - 0.00 in   Overcast
9:53 AM 66.9 °F 64.0 °F 90% 29.95 in 10.0 mi WNW 8.1 mph - 0.00 in   Overcast
10:11 AM 66.2 °F 64.4 °F 94% 29.95 in 7.0 mi West 8.1 mph - N/A   Overcast
10:51 AM 66.2 °F 64.4 °F 94% 29.94 in 9.0 mi West 10.4 mph - 0.00 in Rain Light Rain
10:53 AM 66.9 °F 64.9 °F 93% 29.94 in 10.0 mi West 10.4 mph - 0.00 in Rain Light Rain
11:53 AM 71.1 °F 64.0 °F 78% 29.91 in 10.0 mi WNW 6.9 mph - 0.00 in   Overcast
12:53 PM 73.0 °F 64.0 °F 73% 29.88 in 10.0 mi NNW 5.8 mph - N/A   Mostly Cloudy
1:53 PM 73.9 °F 63.0 °F 68% 29.87 in 10.0 mi WNW 6.9 mph - N/A   Mostly Cloudy
2:47 PM 75.2 °F 62.6 °F 65% 29.85 in 10.0 mi NNW 8.1 mph - N/A   Mostly Cloudy
2:53 PM 75.0 °F 61.0 °F 62% 29.85 in 10.0 mi NW 6.9 mph - N/A   Mostly Cloudy
3:53 PM 75.0 °F 60.1 °F 60% 29.85 in 10.0 mi WNW 6.9 mph - N/A   Mostly Cloudy
4:53 PM 73.9 °F 55.9 °F 53% 29.85 in 10.0 mi Variable 3.5 mph - N/A   Mostly Cloudy
5:53 PM 73.0 °F 55.9 °F 55% 29.87 in 10.0 mi North 4.6 mph - N/A   Mostly Cloudy
6:53 PM 72.0 °F 55.9 °F 57% 29.90 in 10.0 mi North 4.6 mph - N/A   Overcast
7:53 PM 70.0 °F 57.0 °F 63% 29.91 in 10.0 mi NNE 4.6 mph - N/A   Overcast
8:53 PM 69.1 °F 57.9 °F 68% 29.93 in 10.0 mi Calm Calm - N/A   Overcast
9:53 PM 68.0 °F 57.9 °F 70% 29.94 in 10.0 mi Calm Calm - N/A   Mostly Cloudy
10:53 PM 66.0 °F 57.0 °F 73% 29.95 in 10.0 mi Calm Calm - N/A   Mostly Cloudy
11:53 PM 63.0 °F 57.0 °F 81% 29.94 in 10.0 mi Calm Calm - N/A   Mostly Cloudy